Weather History for KCXY - February, 2014

Change the Weather History Date:

Wednesday, February 12, 2014

  Actual Average Record
Temperature  
Mean Temperature 11 °F -  
Max Temperature 21 °F 40 °F 74 °F (1999)
Min Temperature 1 °F 24 °F 0 °F (1979)
Degree Days  
Heating Degree Days 54    
Moisture  
Dew Point 7 °F    
Average Humidity 71    
Maximum Humidity 86    
Minimum Humidity 52    
Precipitation  
Precipitation 0.01 in - - ()
Sea Level Pressure  
Sea Level Pressure 30.41 in    
Wind  
Wind Speed 4 mph (East)    
Max Wind Speed 9 mph    
Max Gust Speed -    
Visibility 7 miles    
Events Snow    
Averages and records for this station are not official NWS values.
T = Trace of Precipitation, MM = Missing Value Source: NWS Daily Summary

Daily Weather History Graph

Daily Weather History Graph

Search for Another Location

Airport or City:

Trip Planner

Search our weather history database for the weather conditions in past years. The results will help you decide how hot, cold, wet, or windy it might be!

Date:

Astronomy

Feb. 12, 2014 Rise Set
Actual Time 7:04 AM EST 5:39 PM EST
Civil Twilight 6:36 AM EST 6:07 PM EST
Nautical Twilight 6:04 AM EST 6:39 PM EST
Astronomical Twilight 5:32 AM EST 7:11 PM EST
Moon 3:51 PM EST (2/12) 5:19 AM EST (2/12)
Length of Visible Light 11h 31m
Length of Day
10h 35m
Waxing Gibbous, 95% of the Moon is Illuminated
Feb 12
Waxing Gibbous
Feb 14
Full
Feb 22
Last Quarter
Mar 1
New
Mar 8
First Quarter

Hourly Weather History & Observations

Time (EST) Temp. Windchill Dew Point Humidity Pressure Visibility Wind Dir Wind Speed Gust Speed Precip Events Conditions
12:56 AM 10.0 °F - 1.9 °F 70% 30.52 in 10.0 mi Calm Calm - N/A   Clear
1:56 AM 7.0 °F - 1.9 °F 80% 30.53 in 10.0 mi Calm Calm - N/A   Clear
2:56 AM 6.1 °F - 1.0 °F 80% 30.53 in 10.0 mi Calm Calm - N/A   Clear
3:56 AM 3.9 °F -5.3 °F -0.9 °F 80% 30.54 in 10.0 mi WSW 4.6 mph - N/A   Clear
4:56 AM 3.9 °F - -0.9 °F 80% 30.54 in 10.0 mi Calm Calm - N/A   Clear
5:56 AM 3.0 °F -6.4 °F -2.0 °F 80% 30.56 in 8.0 mi SW 4.6 mph - N/A   Clear
6:56 AM 1.9 °F -7.6 °F -2.0 °F 83% 30.55 in 9.0 mi SW 4.6 mph - N/A   Clear
7:56 AM 3.9 °F - -0.0 °F 84% 30.58 in 10.0 mi Calm Calm - N/A   Clear
8:56 AM 9.0 °F - 3.0 °F 77% 30.57 in 9.0 mi Calm Calm - N/A   Clear
9:56 AM 14.0 °F - 3.0 °F 62% 30.55 in 10.0 mi Calm Calm - N/A   Clear
10:56 AM 16.0 °F 6.3 °F 1.9 °F 54% 30.56 in 10.0 mi ESE 6.9 mph - 0.00 in   Clear
11:56 AM 17.1 °F 7.6 °F 3.0 °F 54% 30.53 in 10.0 mi East 6.9 mph - 0.00 in   Clear
12:56 PM 19.0 °F 9.0 °F 3.9 °F 52% 30.50 in 10.0 mi East 8.1 mph - N/A   Clear
1:56 PM 19.0 °F 8.2 °F 3.9 °F 52% 30.46 in 10.0 mi East 9.2 mph - N/A   Clear
2:56 PM 19.9 °F 10.1 °F 5.0 °F 52% 30.45 in 10.0 mi East 8.1 mph - N/A   Clear
3:56 PM 21.0 °F 12.4 °F 6.1 °F 53% 30.44 in 10.0 mi East 6.9 mph - N/A   Clear
4:56 PM 19.9 °F 10.1 °F 8.1 °F 60% 30.40 in 10.0 mi East 8.1 mph - N/A   Clear
5:56 PM 21.0 °F 14.6 °F 9.0 °F 60% 30.39 in 10.0 mi East 4.6 mph - N/A   Clear
6:56 PM 21.0 °F 16.2 °F 9.0 °F 60% 30.38 in 10.0 mi East 3.5 mph - N/A   Mostly Cloudy
7:56 PM 21.0 °F 13.4 °F 9.0 °F 60% 30.37 in 10.0 mi East 5.8 mph - N/A   Scattered Clouds
8:46 PM 19.9 °F 12.1 °F 9.0 °F 62% 30.33 in 10.0 mi East 5.8 mph - N/A   Overcast
8:56 PM 19.9 °F 11.1 °F 8.1 °F 60% 30.35 in 10.0 mi East 6.9 mph - N/A   Overcast
9:06 PM 19.9 °F 12.1 °F 9.0 °F 62% 30.32 in 10.0 mi ESE 5.8 mph - N/A   Overcast
9:34 PM 19.9 °F 10.1 °F 12.0 °F 71% 30.30 in 2.5 mi East 8.1 mph - 0.00 in Snow Light Snow
9:56 PM 19.9 °F 12.1 °F 14.0 °F 78% 30.32 in 2.0 mi East 5.8 mph - 0.00 in Snow Light Snow
10:11 PM 19.9 °F 12.1 °F 14.0 °F 78% 30.29 in 2.0 mi ENE 5.8 mph - 0.00 in Snow Light Snow
10:30 PM 19.0 °F 11.1 °F 15.1 °F 85% 30.28 in 1.5 mi ENE 5.8 mph - 0.00 in Snow Light Snow
10:53 PM 19.4 °F 10.4 °F 15.8 °F 86% 30.27 in 2.0 mi ENE 6.9 mph - 0.00 in Snow Light Snow
10:56 PM 19.0 °F 11.1 °F 15.1 °F 85% 30.29 in 2.0 mi ENE 5.8 mph - 0.01 in Snow Light Snow
11:09 PM 19.0 °F 9.0 °F 15.1 °F 85% 30.25 in 3.0 mi ENE 8.1 mph - 0.00 in Snow Light Snow
11:16 PM 19.0 °F 10.0 °F 15.1 °F 85% 30.25 in 2.5 mi ENE 6.9 mph - 0.00 in Snow Light Snow
11:33 PM 19.0 °F 9.0 °F 15.1 °F 85% 30.24 in 1.8 mi ENE 8.1 mph - 0.00 in Snow Light Snow
11:47 PM 19.0 °F 11.1 °F 15.1 °F 85% 30.24 in 1.8 mi ENE 5.8 mph - 0.00 in Snow Light Snow
11:56 PM 19.0 °F 11.1 °F 15.1 °F 85% 30.25 in 1.5 mi NE 5.8 mph - 0.00 in Snow Light Snow